Regional Weather Roundup
Issued by NWS

Home | Current Version | Previous Version | Graphics & Text | Print | Product List | Glossary On
Versions: 1 2 3 4 5 6 7 8 9 10 11 12 13 14 15 16 17 18 19 20 21 22 23 24 25 26 27 28 29 30 31 32 33 34 35 36 37 38 39 40 41 42 43 44 45 46 47 48 49 50
000
ASUS43 KIND 251759
RWRIN

WEATHER ROUNDUP FOR INDIANA
NATIONAL WEATHER SERVICE INDIANAPOLIS IN
200 PM EDT TUE APR 25 2017

NOTE: "FAIR" INDICATES FEW OR NO CLOUDS BELOW 12,000 FEET WITH NO
SIGNIFICANT WEATHER AND/OR OBSTRUCTIONS TO VISIBILITY.

* - STATION DOES NOT REPORT WEATHER SUCH AS PRECIPITATION OR FOG.

+ - STATION NOT QUALITY CONTROLLED BY THE NATIONAL WEATHER SERVICE.
    USE DATA WITH CAUTION...ESPECIALLY DEWPOINT AND RELATIVE
    HUMIDITY OBSERVATIONS.

INZ001>003-010>013-019-020-251900-
NORTHWEST INDIANA

CITY           SKY/WX    TMP DP  RH WIND       PRES   REMARKS
GARY /AIRPORT/ PTSUNNY   75  45  33 SE14      29.68F
KNOX *+        MOSUNNY   72  27  18 SE10      29.72F
MICHIGAN CITY+ PTSUNNY   72  52  49 SE10G16   29.71F
MONTICELLO +   MOSUNNY   73  49  43 SE7       29.71F
6HR MIN TEMP:  54; 6HR MAX TEMP:  73;

RENSSELAER +   SUNNY     75  45  33 SE12G18   29.69F

$$

LMZ046-743>745-251900-
SOUTHERN LAKE MICHIGAN

STATION/POSITION TIME  TEMP    WIND        PRES    WAVE
                       AIR SEA DIR/SP/G            HT
                 (UTC) (F)     (DEG/KT/KT) (MB)    (FT)
BURNS HARBOR     1740   74     160/  7/ 15 1006.1F
MICHIGAN CITY    1730   70     150/ 13/ 16   N/A

$$

INZ004-005-014>016-021>024-251900-
NORTH CENTRAL INDIANA

CITY           SKY/WX    TMP DP  RH WIND       PRES   REMARKS
GOSHEN         SUNNY     70  53  54 SE8G20    29.74F
6HR MIN TEMP:  53; 6HR MAX TEMP:  70;

SOUTH BEND       N/A    N/A N/A N/A MISG      29.73F
WARSAW +       MOSUNNY   70  54  56 SE6       29.74F

$$

INZ006>009-017-018-025>027-251900-
NORTHEAST INDIANA

CITY           SKY/WX    TMP DP  RH WIND       PRES   REMARKS
ANGOLA *+      MOSUNNY   68  59  73 VRB6      29.75F
AUBURN +       SUNNY     70  52  52 SE8       29.76F
FORT WAYNE     PTSUNNY   70  54  56 VRB7      29.75F
6HR MIN TEMP:  54; 6HR MAX TEMP:  71;

HUNTINGTON +   MOSUNNY   70  53  55 S5        29.74F
6HR MIN TEMP:  54; 6HR MAX TEMP:  70;

KENDALLVILLE + CLOUDY    68  54  62 SE9       29.76F

$$

INZ028-029-035-036-043>045-051>053-251900-
WEST CENTRAL INDIANA

CITY           SKY/WX    TMP DP  RH WIND       PRES   REMARKS
CRAWFORDSVL +  MOSUNNY   73  52  48 SE6       29.72F
6HR MIN TEMP:  54; 6HR MAX TEMP:  73;

GREENCASTLE +  MOSUNNY   72  52  49 SE9       29.73F
LAFAYETTE      MOSUNNY   73  53  49 S7G17     29.70F
6HR MIN TEMP:  54; 6HR MAX TEMP:  73;

TERRE HAUTE    MOSUNNY   75  55  49 S8G17     29.71F
6HR MIN TEMP:  55; 6HR MAX TEMP:  75;


$$

INZ030>032-037>040-046>048-054>057-064-065-251900-
CENTRAL INDIANA

CITY           SKY/WX    TMP DP  RH WIND       PRES   REMARKS
CP ATTERBURY + SUNNY     72  54  53 E6        29.74F
COLUMBUS       MOSUNNY   72  52  49 S6        29.74F
FRANKFORT +    MOSUNNY   76  52  43 SE8       29.74F
GREENWOOD *+   MOSUNNY   71  53  52 S6        29.74F
6HR MIN TEMP:  57; 6HR MAX TEMP:  72;

INDIANAPOLIS   CLOUDY    71  54  54 E6        29.73F
6HR MIN TEMP:  56; 6HR MAX TEMP:  72;

-EAGLE CREEK   SUNNY     72  53  51 SE7       29.73F
6HR MIN TEMP:  57; 6HR MAX TEMP:  73;

KOKOMO +       MOSUNNY   72  54  53 VRB7      29.74F
6HR MIN TEMP:  55; 6HR MAX TEMP:  72;

SHELBYVILLE    SUNNY     74  54  49 S8        29.74F
6HR MIN TEMP:  58; 6HR MAX TEMP:  74;


$$

INZ033-034-041-042-049-050-058-059-251900-
EAST CENTRAL INDIANA

CITY           SKY/WX    TMP DP  RH WIND       PRES   REMARKS
MUNCIE         SUNNY     72  53  51 SE7       29.74F
6HR MIN TEMP:  56; 6HR MAX TEMP:  73;

RICHMOND +     SUNNY     70  52  52 SE8       29.77F

$$

INZ060-061-067>069-081>083-085>088-251900-
SOUTHWEST INDIANA

CITY           SKY/WX    TMP DP  RH WIND       PRES   REMARKS
EVANSVILLE     MOSUNNY   75  56  51 SE12      29.73F
6HR MIN TEMP:  56; 6HR MAX TEMP:  76;

HUNTINGBURG *+ PTSUNNY   74  58  57 SE9       29.74F
6HR MIN TEMP:  55; 6HR MAX TEMP:  74;


$$

INZ062-063-066-070>080-084-089>092-251900-
SOUTH CENTRAL AND SOUTHEAST INDIANA

CITY           SKY/WX    TMP DP  RH WIND       PRES   REMARKS
BLOOMINGTON    MOSUNNY   74  53  48 SE7       29.73F
MADISON *+     MOSUNNY   72  52  49 CALM      29.78F

$$





USA.gov is the U.S. government's official web portal to all federal, state and local government web resources and services.